Погода в Бузулуке

Погода в Бузулуке : погода сейчас, прогноз погоды и архив. Всё, что Вы хотите узнать о погоде в Бузулуке!

Хотите узнать прогноз погоды в Бузулуке? Тогда Вам сюда: Погода в Бузулуке

Поиск расширенной информации на нашем сайте:

Другие новости

Новости СМИ2

Главная страница сайта

Новости сайта

03.07.2017

Напоминаем, что на нашем специализированном сайте Метеоцентр.Азия вы можете получить высокодетализированные автоматические прогнозы погоды по пунктам России, СНГ и мира в авиационном формате (включающие направление и скорость ветра, видимость, явления погоды, количество и форму облачности, нижнюю и верхнюю границу облачности).

Рекомендуем: металлический сайдинг под бревно

Погода в Бузулуке - сегодня

Время (UTC), дата Ветер
(°,м/с) 
Видим.   Явления Облачность Т
(°С)
Тd
(°С)
f(%) Тe
(°С)
Pmin
(гПа)
dP
(гПа)
Po
(мм)
O2
(г/м3)
Тmin Tmax R s Состояние
почвы
09 18.07.17 220 (ЮЗ) 10 км    8/3 600 м средняя, верхняя 
[Sc diur, vesp|Ac trans|Ci fib]
+28.6 +15.2 44 +37  1014.2  0.4  754  272           
12 18.07.17 270 (З) 10 км    9/3 600 м средняя, верхняя 
[Sc diur, vesp|Ac cuf|Ci sp]
+29.4 +14.7 41 +37  1014  -0.2  754  271           
15 18.07.17 120 (ЮВ) 10 км    8/3 600 м средняя 
[Sc diur, vesp|Ac trans]
+26 +15.5 52 +35  1012.8  -1.3  753  274    +31.1       
18 18.07.17 360 (С) 10 км    4/0 средняя 
[Ac trans]
+20.3 +17.2 82 +33  1013.7  0.7  753  279           
21 18.07.17 310 (СЗ) 10 км    6/3 300 м кучево-дожд., средняя 
[Cb cap|Ac trans]
+18.6 +17.9 96 +34  1014.3  0.6  754  280           
00 19.07.17 290 (З) 10 км  {ливн. осадки}  8/4 600 м средняя 
[Sc|Ac lent]
+17.1 +16.9 99 +30  1014.3  -0.1  754  282           
03 19.07.17 300 (СЗ) 10 км    8/3 600 м средняя, верхняя 
[Sc diur, vesp|Ac trans|Ci fib]
+19.2 +18.5 96 +35  1014.3  754  279  +16.8    0.0    влажная 
06 19.07.17 010 (С) 10 км    ясно 
+24.5 +18.1 68 +39  1013.4  -0.7  753  274           
09 19.07.17 360 (С) 10 км    1/1 1000 м 
[Cu hum]
+27.3 +17.1 54 +40  1013.6  0.3  753  272           
12 19.07.17 010 (С) 10 км    3/3 1000 м 
[Cu hum]
+27.8 +16.4 50 +39  1012.9  -0.6  753  272           
15 19.07.17 340 (С) 10 км    1/1 1000 м 
[Cu hum]
+25.8 +16.6 57 +37  1013  753  274    +28.1       
18 19.07.17 320 (СЗ) 10 км    3/3 600 м 
[Sc]
+19.3 +17.1 87 +33  1014.2  754  280           
21 19.07.17 290 (З) 10 км    ясно 
+16.5 +15.6 94 +28  1014.2  0.1  754  283           
00 20.07.17 300 (СЗ) 10 км    ясно 
+14.7 +14.4 98 +23  1014  -0.3  753  285           
03 20.07.17 270 (З) 10 км    4/0 верхняя 
[Ci fib]
+18.5 +17.2 92 +33  1014.6  0.7  754  281  +13.8        сухая 
06 20.07.17 090 (В) 10 км    4/1 1000 м средняя 
[Cu hum|Ac trans]
+23.5 +16.5 65 +35  1014.4  754  276           
09 20.07.17 020 (С) 10 км  сильн. гроза с градом  8/5 600 м кучево-дожд., средняя 
[Cb cap|Ac trans]
+24.4 +15.2 57 +33  1014.5  0.2  754  276           
12 20.07.17 340 (С) 10 км  {гроза}  5/3 600 м средняя 
[Cu hum|Ac trans]
+25.5 +14.6 51 +33  1013.5  -0.7  753  275           
15 20.07.17 070 (В) 10 км    4/0 средняя, верхняя 
[Ac trans|Ci fib]
+24.3 +16.3 61 +35  1012.6  -0.9  753  275    +26.4       
18 20.07.17 080 (В) 10 км    ясно 
+19 +16.3 84 +31  1012.7  0.1  753  280           
21 20.07.17 030 (СВ) 10 км    ясно 
+16.2 +15.1 93 +27  1013  0.2  753  283           
00 21.07.17 тихо ()   10 км    ясно 
+13.8 +13.5 98 +20  1012.7  -0.4  752  286           
03 21.07.17 тихо ()   10 км    9/0 кучево-дожд., средняя 
[Cb cap|Ac trans]
+17.9 +16.6 92 +29  1012.9  0.3  753  281  +13.5        сухая 
06 21.07.17 040 (СВ) 10 км  в посл. час ливневой дождь  8/4 600 м кучево-дожд., средняя 
[Cb cap|Ac cuf]
+17.7 +17.4 98 +32  1013.8  753  281           
09 21.07.17 050 (СВ) 10 км  в посл. час ливневой дождь  9/5 600 м кучево-дожд., средняя 
[Cb cap|Ac trans]
+20.3 +18 87 +34  1013.8  753  278           
Время (UTC), дата Ветер
(°,м/с) 
Видим.   Явления Облачность Т
(°С)
Тd
(°С)
f(%) Тe
(°С)
Pmin
(гПа)
dP
(гПа)
Po
(мм)
O2
(г/м3)
Тmin Tmax R s Состояние
почвы

Для получения пояснительной информации подведите курсор к названию столбца.

ПОГОДА в Бузулуке - архив

Всё, что Вы хотите узнать о погоде в Бузулуке - удобно и подробно!

Выберите нужную дату (начиная с 1 января 2015* года) и нажмите кнопку "Найти".
Будут отображены архивные сводки погоды по пункту Бузулук, начиная с указанной даты.


Отображать данные в формате CSV (для использования в таблицах Excel)


Внимание! Наш архив погоды предназначен исключительно для личного некоммерческого использования в познавательных целях. Если Вам необходимы официальные справки о состоянии погоды (для производственных, юридических, коммерческих и т.п. целей), обращайтесь в органы Росгидромета.

*Примечание: данная дата относится к архиву по метеостанциям СССР (Россия, СНГ, Балтия).
Архив по метеостанциям Зарубежной Европы и Азии (кроме Китая) хранится 10 дней, по другим регионам земного шара (Китай, Африка, Америка, Австралия, Океания) - 1 день.

Бузулук - район местоположения метеостанции


Название, широта, долгота, высота метеостанции:
Бузулук 52.8°ш. 52.2°д. 80 м над ур. моря [Российская Федерация]

Дополнительная информация

В oтличие oт бoльшинства пoгoдных сайтoв мы публикуем пoдрoбную метеoинфoрмацию в детальнoм прoфессиoнальнoм фoрмате.

Характеристики температуры и влажнoсти вoздуха измеряются на высoте 2 м в тени вдали oт зданий и деревьев.
Скoрoсть ветра измеряется на высoте 10 м (на урoвне рoста челoвека скoрoсть ветра ниже в 1.5-2 раза). Если метеoстанция нахoдится в гoрoде или в лесу, тo скoрoсть ветра занижена на 2-4 м/с пo сравнению с oткрытым местoм. Скoрoсть ветра над акватoриями крупных рек и oзёр, а также на вершинах хoлмoв на 2-5 м/с выше, чем в oбычных услoвиях.
Атмoсфернoе давление в разных тoчках местнoсти мoжет значительнo oтличаться oт давления на метеoстанции, в зависимoсти oт услoвий рельефа (при пoдъёме на 10 м давление пoнижается примернo на 1 мм рт.ст.).